sat.trackr.live / text

‹ back to catalog

STARLINK-34596

NORAD 64732 · 2025-144J

PAYLOAD ACTIVE UNKNOWN

§ Identity

Operator
Country
US
Launch date
2025-07-02
Launch site
AFETR
Launch vehicle
Mass (kg)
RCS (m²)

Purposes: comms

External: N2YO · Heavens-Above · Gunter

§ Orbital elements

Epoch: 2026-09-20T12:57:52.365024Z

Period
93.85 min
Inclination
53.1605°
Eccentricity
0.0000981
Mean motion
15.34411047 rev/d
Perigee alt
462.0 km
Apogee alt
463.3 km
Semi-major
6,840.8 km
B*
5.2598e-4
RAAN
353.1968°
Arg perigee
85.5167°
Mean anomaly
274.5948°
Rev number
6,958

§ Raw data

STARLINK-345961 64732U 25144J   26263.54018941  .00017443  00000+0  52598-3 0  99992 64732  53.1605 353.1968 0000981  85.5167 274.5948 15.34411047 69586

JSON: /api/v1/satellites/64732 · /tle

For live sub-satellite position, see the globe view (requires WebGL).

§ Visibility from observer

Set your observer location to see the next 7 days of passes ≥ 10°. The values pass through the URL so the page stays shareable.

No JS? Fill the form by hand. The geolocation button needs JavaScript.